EW7152 Weather Reports


Display with metric or nautical units.
time (UTC)temp
F
wind
direction
speed
MPH
gust
MPH
rain 1hr
in
rain 24hr
in
rain mn
in
humidity
%
barometer
mb
20260905023031 74 303 0.0 0.0 0.00 0.00 0.00 49 1018.2
20260905021527 73 243 0.0 0.0 0.00 0.00 0.00 49 1018.5
20260905020024 72 332 0.0 1.0 0.00 0.00 0.00 51 1018.8
20260905014520 72 282 0.0 2.0 0.00 0.00 0.00 52 1019.0
20260905013018 71 289 0.0 1.0 0.00 0.00 0.00 54 1019.5
20260905011512 70 313 0.0 6.0 0.00 0.00 0.00 53 1020.2
20260905010008 69 276 0.0 10.0 0.00 0.00 0.00 55 1020.6
20260905004503 68 324 0.0 8.0 0.00 0.00 0.00 54 1021.0
20260905003110 68 291 0.0 5.0 0.00 0.00 0.00 54 1021.4
20260905001559 67 272 0.0 0.0 0.00 0.00 0.00 56 1021.8
20260904234548 64 1 0.0 0.0 0.00 0.00 0.00 60 1022.2
20260904233048 62 282 0.0 9.0 0.00 0.00 0.00 60 1022.4
20260904231542 59 295 0.0 1.0 0.00 0.00 0.00 63 1022.6
20260904230100 55 341 0.0 1.0 0.00 0.00 0.00 69 1022.8
20260904224532 50 222 0.0 0.0 0.00 0.00 0.00 85 1023.1
20260904223027 46 222 0.0 0.0 0.00 0.00 0.00 87 1023.3
20260904221522 44 228 0.0 0.0 0.00 0.00 0.00 91 1023.4
20260904220018 42 228 0.0 0.0 0.00 0.00 0.00 91 1023.5
20260904214514 40 228 0.0 0.0 0.00 0.00 0.00 91 1023.4
20260904213017 38 228 0.0 0.0 0.00 0.00 0.00 91 1023.2
20260904211506 36 228 0.0 0.0 0.00 0.00 0.00 91 1023.2
20260904210003 33 228 0.0 0.0 0.00 0.00 0.00 85 1023.3
20260904204502 31 228 0.0 0.0 0.00 0.00 0.00 84 1023.2
20260904203003 31 228 0.0 0.0 0.00 0.00 0.00 84 1023.2
20260904201500 31 228 0.0 0.0 0.00 0.00 0.00 84 1023.1
20260904200101 31 228 0.0 0.0 0.00 0.00 0.00 84 1023.1
20260904194558 31 228 0.0 0.0 0.00 0.00 0.00 84 1023.1
20260904193056 31 228 0.0 0.0 0.00 0.00 0.00 84 1023.0
20260904191555 32 228 0.0 0.0 0.00 0.00 0.00 84 1023.0
20260904190055 32 228 0.0 0.0 0.00 0.00 0.00 84 1023.0
20260904184551 32 228 0.0 0.0 0.00 0.00 0.00 84 1022.9
20260904183107 32 228 0.0 0.0 0.00 0.00 0.00 84 1022.8
20260904181549 32 228 0.0 0.0 0.00 0.00 0.00 85 1022.8
20260904180047 32 228 0.0 0.0 0.00 0.00 0.00 85 1022.8
20260904174546 32 228 0.0 0.0 0.00 0.00 0.00 85 1023.0
20260904173047 33 228 0.0 0.0 0.00 0.00 0.00 85 1022.9
20260904171605 33 228 0.0 0.0 0.00 0.00 0.00 85 1022.8
20260904170043 33 228 0.0 0.0 0.00 0.00 0.00 85 1022.8
20260904164548 33 228 0.0 0.0 0.00 0.00 0.00 85 1022.8
20260904163037 33 228 0.0 0.0 0.00 0.00 0.00 85 1023.0
20260904161545 33 228 0.0 0.0 0.00 0.00 0.00 85 1023.0
20260904160037 33 228 0.0 0.0 0.00 0.00 0.00 85 1023.0
20260904154535 33 228 0.0 0.0 0.00 0.00 0.00 86 1023.0
20260904153048 33 228 0.0 0.0 0.00 0.00 0.00 85 1023.3
20260904151527 34 228 0.0 0.0 0.00 0.00 0.00 85 1023.5
20260904150035 34 228 0.0 0.0 0.00 0.00 0.00 86 1023.7
20260904144524 34 228 0.0 0.0 0.00 0.00 0.00 86 1023.8
20260904143023 35 228 0.0 0.0 0.00 0.00 0.00 87 1023.8
20260904141521 35 228 0.0 0.0 0.00 0.00 0.00 87 1023.8
20260904140030 35 228 0.0 0.0 0.00 0.00 0.00 87 1023.9
20260904134516 35 228 0.0 0.0 0.00 0.00 0.00 88 1023.8
20260904133016 35 228 0.0 0.0 0.00 0.00 0.00 88 1023.8
20260904131534 36 228 0.0 0.0 0.00 0.00 0.00 88 1023.9
20260904130013 36 228 0.0 0.0 0.00 0.00 0.00 87 1023.7
20260904124513 37 228 0.0 0.0 0.00 0.00 0.00 87 1023.6
20260904123012 37 228 0.0 0.0 0.00 0.00 0.00 87 1023.6
20260904121512 37 228 0.0 0.0 0.00 0.00 0.00 86 1023.5
20260904120010 38 228 0.0 0.0 0.00 0.00 0.00 85 1023.5
20260904114508 39 228 0.0 0.0 0.00 0.00 0.00 85 1023.4
20260904113023 39 228 0.0 0.0 0.00 0.00 0.00 86 1023.2
20260904111506 40 228 0.0 0.0 0.00 0.00 0.00 83 1023.1
20260904110007 41 228 0.0 0.0 0.00 0.00 0.00 83 1022.9
20260904104504 41 228 0.0 0.0 0.00 0.00 0.00 83 1022.7
20260904103002 42 228 0.0 0.0 0.00 0.00 0.00 82 1022.5
20260904101501 43 228 0.0 0.0 0.00 0.00 0.00 82 1022.2
20260904100001 43 228 0.0 0.0 0.00 0.00 0.00 80 1021.9
20260904094609 44 228 0.0 0.0 0.00 0.00 0.00 80 1021.8
20260904093112 45 228 0.0 0.0 0.00 0.00 0.00 78 1021.5
20260904091615 46 228 0.0 0.0 0.00 0.00 0.00 78 1021.4
20260904090100 48 228 0.0 0.0 0.00 0.00 0.00 76 1021.1
20260904084558 49 228 0.0 0.0 0.00 0.00 0.00 76 1020.9
20260904083104 52 228 0.0 0.0 0.00 0.00 0.00 74 1020.7
20260904081557 55 228 0.0 0.0 0.00 0.00 0.00 70 1020.5
20260904080056 57 228 0.0 0.0 0.00 0.00 0.00 70 1020.2
20260904074556 59 228 0.0 0.0 0.00 0.00 0.00 66 1020.0
20260904073109 62 228 0.0 0.0 0.00 0.00 0.00 62 1019.8
20260904071555 63 228 0.0 0.0 0.00 0.00 0.00 60 1019.7
20260904070055 63 220 0.0 0.0 0.00 0.00 0.00 58 1019.8
20260904064554 64 215 0.0 0.0 0.00 0.00 0.00 58 1019.8
20260904063104 64 241 0.0 0.0 0.00 0.00 0.00 57 1019.8
20260904061553 65 243 0.0 0.0 0.00 0.00 0.00 57 1019.6
20260904054612 65 208 0.0 0.0 0.00 0.00 0.00 55 1019.5
20260904053051 65 224 0.0 0.0 0.00 0.00 0.00 53 1019.6
20260904051551 66 226 0.0 0.0 0.00 0.00 0.00 52 1019.8
20260904050050 65 237 0.0 0.0 0.00 0.00 0.00 51 1019.7
20260904044550 65 200 0.0 0.0 0.00 0.00 0.00 59 1019.7
20260904043051 65 239 0.0 0.0 0.00 0.00 0.00 60 1019.8
20260904041548 66 256 0.0 0.0 0.00 0.00 0.00 59 1019.8
20260904040045 65 276 0.0 9.0 0.00 0.00 0.00 54 1019.9
20260904034544 64 212 0.0 0.0 0.00 0.00 0.00 58 1020.0
20260904033043 64 252 1.0 10.0 0.00 0.00 0.00 59 1020.1
20260904031542 65 275 0.0 0.0 0.00 0.00 0.00 61 1020.1
20260904030040 65 215 0.0 5.0 0.00 0.00 0.00 59 1020.3
20260904024541 64 341 0.0 3.0 0.00 0.00 0.00 63 1020.5